Location: Unspecified
(0.0000°N, 0.0000°E)
Time: 16:52:48
(UTC+00:00)

HO-68 - Pass Details

Date: 04 June 2023
Orbit: 1193 x 1204 km, 100.3° (Epoch: 28 September)

Event Time Altitude Azimuth Distance (km) Brightness Sun altitude
Rises 02:53:31 0° 16° (NNE) 4,090 ? -41.8°
Reaches altitude 10° 02:56:08 10° 17° (NNE) 3,126 ? -41.3°
Enters shadow 03:00:29 41° 22° (NNE) 1,661 ? -40.3°
